Regional Weather Roundup
Issued by NWS Glasgow, MT

Home | Current Version | Previous Version | Text Only | Print | Product List | Glossary On
Versions: 1 2 3 4 5 6 7 8 9 10 11 12 13 14 15 16 17 18 19 20 21 22 23 24 25 26 27 28 29 30 31 32 33 34 35 36 37 38 39 40 41 42 43 44 45 46 47 48 49 50
000
ASUS45 KGGW 300015
RWRGGW
HOURLY WEATHER ROUNDUP FOR NORTHEAST MONTANA
NATIONAL WEATHER SERVICE GLASGOW MONTANA
600 PM MDT FRI AUG 29 2014

NOTE: "FAIR" INDICATES FEW OR NO CLOUDS BELOW 12,000 FEET WITH NO
SIGNIFICANT WEATHER AND/OR OBSTRUCTIONS TO VISISBILITY.

NORTHEAST MONTANA


CITY           SKY/WX    TMP DP  RH WIND       PRES   REMARKS
GLASGOW        MOSUNNY   71  51  49 SE9       29.93F
6HR MIN TEMP:  66; 6HR MAX TEMP:  72;

PLENTYWOOD       N/A     73  42  32 E3          N/A
WOLF POINT     SUNNY     74  47  38 CALM      29.94F
JORDAN           N/A     73  51  46 E9        29.94F
WINNETT          N/A     76  50  40 SE6         N/A
SIDNEY         SUNNY     73  52  46 E6        29.98S
GLENDIVE       SUNNY     70  52  52 NE8       29.98F
MALTA            N/A     75  52  44 SE8         N/A

FORT PECK REPORTS


CITY           SKY/WX    TMP DP  RH WIND       PRES   REMARKS
FORT PECK        N/A     71  52  50 S2          N/A
THE PINES        N/A     71  50  47 NE5         N/A

SOUTHEAST MONTANA


CITY           SKY/WX    TMP DP  RH WIND       PRES   REMARKS
BILLINGS       MOSUNNY   76  54  46 E14       29.94F
MILES CITY     SUNNY     72  50  45 SE8       29.96F
BAKER          MOSUNNY   71  51  49 NE6       30.00S
LIVINGSTON     SUNNY     83  35  18 E7        29.92F

CENTRAL MONTANA


CITY           SKY/WX    TMP DP  RH WIND       PRES   REMARKS
HAVRE          MOSUNNY   79  45  29 VRB5      29.84F
LEWISTOWN      MOSUNNY   77  49  37 E7        29.92F
GREAT FALLS    SUNNY     81  38  21 S8        29.84F
CUT BANK       MOSUNNY   78  44  29 S14       29.84F
HELENA         SUNNY     83  45  26 E10       29.85F
BUTTE          MOSUNNY   79  34  19 VRB5      29.97F
BOZEMAN        SUNNY     79  46  31 N8        29.91F

WESTERN MONTANA


CITY           SKY/WX    TMP DP  RH WIND       PRES   REMARKS
MISSOULA       SUNNY     86  33  15 NW14      29.83F
KALISPELL      NOT AVBL

NORTH DAKOTA


CITY           SKY/WX    TMP DP  RH WIND       PRES   REMARKS
WILLISTON      MOSUNNY   74  46  36 VRB3      29.96S
DICKINSON      MOSUNNY   68  54  60 NE12      29.97R
MINOT          PTSUNNY   68  50  52 N6        29.95R
BISMARCK       CLOUDY    68  57  68 N10       29.94R

SOUTHERN SASKATCHEWAN


CITY           SKY/WX    TMP DP  RH WIND       PRES   REMARKS
REGINA         PTSUNNY   66  43  42 CALM      29.96F
MOOSE JAW      MOSUNNY  N/A N/A N/A S7          N/A
ESTEVAN        MOSUNNY   70  45  40 NW3       29.97
SWIFT CURRENT  PTSUNNY   68  48  49 SE16G23   29.88F




USA.gov is the U.S. government's official web portal to all federal, state and local government web resources and services.